Home   Weather   Maceió   Past weeks

Flag for Brazil Past Weather in Maceió, Alagoas, Brazil — Yesterday and Last 2 Weeks

Now
73 °F

Passing clouds.


Feels Like: 68 °F
Forecast: 74 / 84 °F
Wind: 2 mph from Southwest

Location: Maceio Aeroporto

Current Time: May 23, 2017 at 5:50:27 am

Latest Report: May 23, 2017 at 5:00 am


Visibility: N/A

Pressure: 29.92 "Hg

Humidity: 100%

Dew Point: 73 °F

Location of MaceióLocation

Past Weather in Maceió — Graph

°F

Maceió Temperature Yesterday

Maximum temperature yesterday: 81 °F (at 11:00 am)
Minimum temperature yesterday: 73 °F (at 12:00 am)
Average temperature yesterday: 76 °F

High & Low Weather Summary for the Past Weeks

 TemperatureHumidityPressure
High91 °F (May 15, 2:00 pm)100% (May 8, 4:00 am)30.04 "Hg (May 8, 4:00 am)
Low70 °F (May 12, 6:00 am)49% (May 15, 2:00 pm)29.86 "Hg (May 8, 4:00 am)
Average78 °F85%29.94 "Hg
* Reported May 8 4:00 am — May 23 4:00 am, Maceió. Weather by CustomWeather, © 2017

Note: Actual official high and low records may vary slightly from our data, if they occured in-between our weather recording intervals... More about our weather records

Advertising

Maceió Weather History for the Previous 24 Hours

Scroll right to see more
 ConditionsComfort  
Time TempWeatherWind HumidityBarometerVisibility
4:00 am
Tue, May 23
73 °FPassing clouds.3 mph100%29.92 "HgN/A
3:00 am75 °FPassing clouds.2 mph94%29.92 "Hg4 mi
2:00 am75 °FLight rain. Fog.2 mph94%29.95 "Hg2 mi
1:00 am75 °FPassing clouds.6 mph94%29.95 "Hg4 mi
12:00 am73 °FPassing clouds.5 mph100%29.95 "HgN/A
11:19 pm
Mon, May 22
75 °FPassing clouds.6 mph94%29.95 "Hg4 mi
11:00 pm73 °FFog.5 mph100%29.95 "Hg1 mi
10:35 pm75 °FFog.6 mph94%29.98 "Hg1 mi
10:00 pm75 °FPartly cloudy.5 mph94%29.98 "Hg5 mi
9:00 pm75 °FMostly cloudy.No wind100%29.98 "HgN/A
8:00 pm75 °FLight rain. Mostly cloudy.3 mph100%29.95 "Hg5 mi
7:30 pm75 °FRain. Mostly cloudy.3 mph100%29.95 "Hg3 mi
7:00 pm75 °FClear.3 mph100%29.92 "Hg10 mi
6:00 pm75 °FMostly cloudy.3 mph100%29.92 "HgN/A
5:00 pm77 °FMostly cloudy.2 mph94%29.89 "HgN/A
4:00 pm73 °FCloudy.6 mph100%29.89 "HgN/A
3:35 pm75 °FRain. Mostly cloudy.13 mph94%29.89 "Hg2 mi
3:00 pm81 °FBroken clouds.9 mph84%29.89 "HgN/A
2:00 pm81 °FBroken clouds.7 mph84%29.89 "HgN/A
1:00 pm79 °FScattered showers. Broken clouds.12 mph94%29.92 "Hg5 mi
12:10 pm79 °FRain. Fog.10 mph89%N/A1 mi
12:00 pm81 °FScattered showers. Broken clouds.8 mph84%29.95 "Hg5 mi
11:00 am81 °FPartly sunny.5 mph84%29.95 "HgN/A
10:00 am79 °FLight rain. Fog.5 mph89%N/A3 mi
9:00 am75 °FScattered showers. Broken clouds.6 mph94%29.98 "HgN/A
8:00 am75 °FRain. Broken clouds.12 mphN/AN/A1 mi
7:00 am75 °FLight rain. Fog.5 mph94%N/A2 mi
6:00 am75 °FLight rain. Fog.10 mph94%N/A2 mi
5:00 am75 °FPartly cloudy.2 mph94%29.92 "HgN/A
Weather by CustomWeather, © 2017

See weather overviewHow to use our weather pages